TimeCST,TemperatureF,Dew PointF,Humidity,Sea Level PressureIn,VisibilityMPH,Wind Direction,Wind SpeedMPH,Gust SpeedMPH,PrecipitationIn,Events,Conditions,WindDirDegrees,DateUTC
12:15 AM,24.8,15.8,69,30.22,10.0,NNW,12.7,19.6,N/A,,Overcast,340,2013-01-06 06:15:00
12:35 AM,24.8,15.8,69,30.22,10.0,NW,11.5,-,N/A,,Overcast,320,2013-01-06 06:35:00
12:55 AM,24.8,15.8,69,30.21,10.0,NNW,16.1,-,N/A,,Overcast,330,2013-01-06 06:55:00
1:15 AM,24.8,15.8,69,30.22,10.0,NNW,9.2,-,N/A,,Overcast,340,2013-01-06 07:15:00
1:35 AM,24.8,15.8,69,30.23,10.0,NNW,12.7,19.6,N/A,,Overcast,340,2013-01-06 07:35:00
1:55 AM,24.8,15.8,69,30.23,10.0,NNW,13.8,20.7,N/A,,Overcast,340,2013-01-06 07:55:00
2:15 AM,24.8,17.6,74,30.25,10.0,NNW,13.8,19.6,N/A,,Overcast,330,2013-01-06 08:15:00
2:35 AM,24.8,17.6,74,30.25,10.0,NNW,10.4,-,N/A,,Overcast,340,2013-01-06 08:35:00
2:55 AM,24.8,17.6,74,30.26,10.0,NNW,8.1,-,N/A,,Overcast,340,2013-01-06 08:55:00
3:15 AM,24.8,17.6,74,30.26,10.0,NNW,6.9,-,N/A,,Overcast,330,2013-01-06 09:15:00
3:35 AM,24.8,17.6,74,30.26,10.0,NW,3.5,-,N/A,,Overcast,320,2013-01-06 09:35:00
4:15 AM,21.2,15.8,80,30.27,10.0,WNW,4.6,-,N/A,,Scattered Clouds,290,2013-01-06 10:15:00
4:35 AM,21.2,15.8,80,30.28,10.0,West,3.5,-,N/A,,Scattered Clouds,260,2013-01-06 10:35:00
4:55 AM,21.2,15.8,80,30.28,10.0,West,4.6,-,N/A,,Scattered Clouds,280,2013-01-06 10:55:00
5:15 AM,21.2,15.8,80,30.28,10.0,WNW,4.6,-,N/A,,Scattered Clouds,290,2013-01-06 11:15:00
5:35 AM,21.2,15.8,80,30.27,10.0,WNW,4.6,-,N/A,,Scattered Clouds,300,2013-01-06 11:35:00
5:55 AM,21.2,15.8,80,30.28,10.0,WNW,4.6,-,N/A,,Scattered Clouds,300,2013-01-06 11:55:00
6:35 AM,21.2,14.0,74,30.29,10.0,Calm,Calm,-,N/A,,Scattered Clouds,0,2013-01-06 12:35:00
6:55 AM,19.4,14.0,80,30.30,10.0,Calm,Calm,-,N/A,,Scattered Clouds,0,2013-01-06 12:55:00
7:15 AM,17.6,12.2,79,30.30,10.0,West,4.6,-,N/A,,Clear,280,2013-01-06 13:15:00
7:35 AM,15.8,10.4,79,30.31,10.0,West,4.6,-,N/A,,Scattered Clouds,270,2013-01-06 13:35:00
7:55 AM,15.8,10.4,79,30.31,10.0,West,5.8,-,N/A,,Scattered Clouds,270,2013-01-06 13:55:00
8:15 AM,17.6,12.2,79,30.32,10.0,West,4.6,-,N/A,,Clear,270,2013-01-06 14:15:00
8:35 AM,19.4,14.0,80,30.33,10.0,Calm,Calm,-,N/A,,Clear,0,2013-01-06 14:35:00
8:55 AM,21.2,15.8,80,30.33,10.0,West,4.6,-,N/A,,Clear,270,2013-01-06 14:55:00
9:15 AM,23.0,15.8,74,30.34,10.0,West,4.6,-,N/A,,Clear,270,2013-01-06 15:15:00
9:35 AM,24.8,17.6,74,30.35,10.0,West,4.6,-,N/A,,Clear,270,2013-01-06 15:35:00
9:55 AM,24.8,17.6,74,30.35,10.0,WSW,5.8,-,N/A,,Clear,250,2013-01-06 15:55:00
10:15 AM,26.6,17.6,69,30.35,10.0,SW,5.8,-,N/A,,Clear,230,2013-01-06 16:15:00
10:35 AM,28.4,17.6,64,30.35,10.0,SW,4.6,-,N/A,,Clear,230,2013-01-06 16:35:00
10:55 AM,28.4,17.6,64,30.35,10.0,West,5.8,-,N/A,,Clear,260,2013-01-06 16:55:00
11:15 AM,30.2,17.6,60,30.35,10.0,West,5.8,-,N/A,,Clear,280,2013-01-06 17:15:00
11:35 AM,32.0,17.6,55,30.34,10.0,WSW,4.6,-,N/A,,Clear,240,2013-01-06 17:35:00
11:55 AM,33.8,17.6,52,30.33,10.0,West,4.6,-,N/A,,Clear,270,2013-01-06 17:55:00
12:15 PM,35.6,19.4,52,30.32,10.0,WSW,3.5,-,N/A,,Clear,250,2013-01-06 18:15:00
12:35 PM,37.4,19.4,48,30.31,10.0,West,5.8,-,N/A,,Clear,260,2013-01-06 18:35:00
12:55 PM,37.4,17.6,45,30.31,10.0,WSW,4.6,-,N/A,,Clear,240,2013-01-06 18:55:00
1:15 PM,37.4,17.6,45,30.30,10.0,SW,4.6,-,N/A,,Clear,220,2013-01-06 19:15:00
1:35 PM,39.2,17.6,42,30.29,10.0,WSW,5.8,-,N/A,,Clear,250,2013-01-06 19:35:00
1:55 PM,39.2,17.6,42,30.29,10.0,SW,5.8,-,N/A,,Clear,220,2013-01-06 19:55:00
2:15 PM,41.0,17.6,39,30.29,10.0,SSW,9.2,-,N/A,,Clear,210,2013-01-06 20:15:00
2:35 PM,41.0,19.4,42,30.28,10.0,SW,8.1,-,N/A,,Clear,220,2013-01-06 20:35:00
2:55 PM,42.8,19.4,39,30.28,10.0,SSW,6.9,-,N/A,,Clear,210,2013-01-06 20:55:00
3:15 PM,42.8,19.4,39,30.28,10.0,SSW,8.1,-,N/A,,Clear,210,2013-01-06 21:15:00
3:35 PM,42.8,19.4,39,30.28,10.0,SW,10.4,-,N/A,,Clear,220,2013-01-06 21:35:00
3:55 PM,42.8,19.4,39,30.28,10.0,SSW,8.1,-,N/A,,Clear,200,2013-01-06 21:55:00
4:15 PM,41.0,21.2,45,30.28,10.0,SSW,6.9,-,N/A,,Clear,200,2013-01-06 22:15:00
4:35 PM,39.2,21.2,49,30.28,10.0,SSW,6.9,-,N/A,,Clear,200,2013-01-06 22:35:00
4:55 PM,37.4,21.2,52,30.28,10.0,South,6.9,-,N/A,,Clear,190,2013-01-06 22:55:00
5:15 PM,35.6,21.2,56,30.28,10.0,South,6.9,-,N/A,,Clear,180,2013-01-06 23:15:00
5:35 PM,33.8,21.2,60,30.27,10.0,South,6.9,-,N/A,,Scattered Clouds,170,2013-01-06 23:35:00
5:55 PM,33.8,21.2,60,30.27,10.0,South,6.9,-,N/A,,Scattered Clouds,170,2013-01-06 23:55:00
6:15 PM,33.8,21.2,60,30.27,10.0,South,8.1,-,N/A,,Scattered Clouds,170,2013-01-07 00:15:00
6:35 PM,32.0,21.2,64,30.26,10.0,South,8.1,-,N/A,,Scattered Clouds,170,2013-01-07 00:35:00
6:55 PM,33.8,21.2,60,30.26,10.0,SSE,9.2,-,N/A,,Scattered Clouds,160,2013-01-07 00:55:00
7:15 PM,32.0,21.2,64,30.25,10.0,SSE,9.2,-,N/A,,Scattered Clouds,160,2013-01-07 01:15:00
7:35 PM,33.8,21.2,60,30.25,10.0,SSE,10.4,-,N/A,,Scattered Clouds,160,2013-01-07 01:35:00
7:55 PM,33.8,21.2,60,30.24,10.0,South,9.2,-,N/A,,Scattered Clouds,170,2013-01-07 01:55:00
8:15 PM,32.0,21.2,64,30.23,10.0,South,8.1,-,N/A,,Scattered Clouds,170,2013-01-07 02:15:00
8:35 PM,30.2,21.2,69,30.23,10.0,SSE,8.1,-,N/A,,Scattered Clouds,160,2013-01-07 02:35:00
8:55 PM,32.0,21.2,64,30.22,10.0,South,8.1,-,N/A,,Scattered Clouds,170,2013-01-07 02:55:00
9:15 PM,32.0,21.2,64,30.21,10.0,South,6.9,-,N/A,,Scattered Clouds,170,2013-01-07 03:15:00
9:55 PM,33.8,21.2,60,30.20,10.0,South,11.5,-,N/A,,Scattered Clouds,180,2013-01-07 03:55:00
10:15 PM,33.8,21.2,60,30.20,10.0,South,13.8,-,N/A,,Scattered Clouds,170,2013-01-07 04:15:00
10:35 PM,33.8,21.2,60,30.19,10.0,South,12.7,-,N/A,,Scattered Clouds,170,2013-01-07 04:35:00
10:55 PM,33.8,21.2,60,30.19,10.0,South,13.8,-,N/A,,Scattered Clouds,180,2013-01-07 04:55:00
11:35 PM,32.0,21.2,64,30.18,10.0,South,13.8,-,N/A,,Scattered Clouds,180,2013-01-07 05:35:00
11:55 PM,30.2,21.2,69,30.18,10.0,South,10.4,13.8,N/A,,Scattered Clouds,180,2013-01-07 05:55:00